San Carlos, CA

3:00 PM PDT on May 26, 2017 (GMT -0700)
San Carlos

Weather History for KSQL - February, 2013

Change the Weather History Date:

Saturday, February 23, 2013

  Actual Average Record
Temperature  
Mean Temperature 52 °F -  
Max Temperature 57 °F 63 °F 75 °F (1985)
Min Temperature 46 °F 41 °F 32 °F (1975)
Degree Days  
Heating Degree Days 14    
Growing Degree Days 2 (Base 50)    
Moisture  
Dew Point 41 °F    
Average Humidity 72    
Maximum Humidity 94    
Minimum Humidity 44    
Precipitation  
Precipitation 0.00 in - - ()
Sea Level Pressure  
Sea Level Pressure 30.23 in    
Wind  
Wind Speed 8 mph (WNW)    
Max Wind Speed 18 mph    
Max Gust Speed 23 mph    
Visibility 9 miles    
Events      
Averages and records for this station are not official NWS values.
T = Trace of Precipitation, MM = Missing Value Source: NWS Daily Summary

Daily Weather History Graph

Daily Weather History Graph

Search for Another Location

Airport or City:

Trip Planner

Search our weather history database for the weather conditions in past years. The results will help you decide how hot, cold, wet, or windy it might be!

Date:

Astronomy

Feb. 23, 2013 Rise Set
Actual Time 6:47 AM PST 5:57 PM PST
Civil Twilight 6:21 AM PST 6:23 PM PST
Nautical Twilight 5:51 AM PST 6:54 PM PST
Astronomical Twilight 5:20 AM PST 7:24 PM PST
Moon 4:14 PM PST (2/23) 5:12 AM PST (2/23)
Length of Visible Light 12h 02m
Length of Day
11h 09m
Waxing Gibbous, 96% of the Moon is Illuminated
Feb 23
Waxing Gibbous
Feb 25
Full
Mar 4
Last Quarter
Mar 11
New
Mar 19
First Quarter

Hourly Weather History & Observations

Time (PST) Temp. Windchill Dew Point Humidity Pressure Visibility Wind Dir Wind Speed Gust Speed Precip Events Conditions
12:15 AM 50.0 °F - 44.6 °F 82% 30.26 in 10.0 mi WNW 10.4 mph - N/A   Scattered Clouds
12:35 AM 50.0 °F - 44.6 °F 82% 30.25 in 10.0 mi West 6.9 mph - N/A   Mostly Cloudy
12:55 AM 50.0 °F - 42.8 °F 76% 30.25 in 10.0 mi West 6.9 mph - N/A   Overcast
1:15 AM 50.0 °F - 41.0 °F 71% 30.26 in 10.0 mi WNW 5.8 mph - N/A   Overcast
1:35 AM 50.0 °F - 41.0 °F 71% 30.25 in 10.0 mi West 3.5 mph - N/A   Overcast
1:55 AM 50.0 °F - 42.8 °F 76% 30.24 in 10.0 mi WNW 6.9 mph - N/A   Overcast
2:15 AM 50.0 °F - 42.8 °F 76% 30.25 in 10.0 mi WNW 5.8 mph - N/A   Overcast
2:35 AM 50.0 °F - 44.6 °F 82% 30.25 in 10.0 mi West 8.1 mph - N/A   Overcast
2:55 AM 50.0 °F - 46.4 °F 87% 30.24 in 10.0 mi West 5.8 mph - N/A   Overcast
3:15 AM 50.0 °F - 46.4 °F 87% 30.23 in 10.0 mi WSW 4.6 mph - N/A   Overcast
3:35 AM 50.0 °F - 46.4 °F 87% 30.22 in 10.0 mi SW 4.6 mph - N/A   Overcast
3:55 AM 50.0 °F - 46.4 °F 87% 30.22 in 6.0 mi Calm Calm - N/A   Overcast
4:15 AM 50.0 °F - 48.2 °F 94% 30.22 in 4.0 mi WSW 3.5 mph - N/A   Overcast
4:35 AM 50.0 °F - 48.2 °F 94% 30.22 in 3.0 mi WNW 9.2 mph - N/A   Overcast
4:55 AM 50.0 °F - 48.2 °F 94% 30.22 in 3.0 mi NW 11.5 mph - N/A   Overcast
5:15 AM 48.2 °F - 46.4 °F 93% 30.22 in 10.0 mi NW 10.4 mph - N/A   Overcast
5:35 AM 48.2 °F - 44.6 °F 87% 30.22 in 10.0 mi WNW 12.7 mph - N/A   Mostly Cloudy
5:55 AM 48.2 °F - 42.8 °F 82% 30.22 in 10.0 mi West 10.4 mph - N/A   Partly Cloudy
6:15 AM 48.2 °F - 42.8 °F 82% 30.22 in 10.0 mi West 9.2 mph - N/A   Clear
6:35 AM 48.2 °F - 41.0 °F 76% 30.23 in 10.0 mi West 12.7 mph 17.3 mph N/A   Clear
6:47 AM 48.2 °F - 41.0 °F 76% 30.23 in 10.0 mi West 12.7 mph - N/A   Scattered Clouds
6:55 AM 48.2 °F - 41.0 °F 76% 30.23 in 10.0 mi WNW 15.0 mph - N/A   Clear
7:50 AM 48.2 °F - 41.0 °F 76% 30.26 in 10.0 mi WNW 9.2 mph - N/A   Partly Cloudy
8:57 AM 50.0 °F - 39.2 °F 66% 30.28 in 10.0 mi NW 9.2 mph - N/A   Scattered Clouds
9:52 AM 51.8 °F - 35.6 °F 54% 30.28 in 10.0 mi NNW 6.9 mph - N/A   Scattered Clouds
10:50 AM 53.6 °F - 33.8 °F 47% 30.27 in 10.0 mi NW 8.1 mph - N/A   Mostly Cloudy
12:50 PM 57.2 °F - 35.6 °F 44% 30.23 in 10.0 mi WNW 16.1 mph - N/A   Mostly Cloudy
2:52 PM 55.4 °F - 35.6 °F 47% 30.20 in 10.0 mi WNW 15.0 mph 23.0 mph N/A   Scattered Clouds
4:56 PM 53.6 °F - 37.4 °F 54% 30.19 in 10.0 mi West 18.4 mph - N/A   Partly Cloudy
5:50 PM 50.0 °F - 37.4 °F 62% 30.20 in 10.0 mi West 9.2 mph - N/A   Scattered Clouds
6:53 PM 50.0 °F - 37.4 °F 62% 30.21 in 10.0 mi West 10.4 mph - N/A   Clear
7:50 PM 50.0 °F - 37.4 °F 62% 30.22 in 10.0 mi WNW 6.9 mph - N/A   Clear
8:50 PM 48.2 °F - 37.4 °F 66% 30.23 in 10.0 mi West 5.8 mph - N/A   Clear
9:15 PM 48.2 °F - 37.4 °F 66% 30.23 in 10.0 mi WNW 4.6 mph - N/A   Clear
9:35 PM 48.2 °F - 37.4 °F 66% 30.23 in 10.0 mi WNW 6.9 mph - N/A   Clear
9:55 PM 48.2 °F - 37.4 °F 66% 30.23 in 10.0 mi WNW 6.9 mph - N/A   Clear
10:15 PM 48.2 °F - 37.4 °F 66% 30.23 in 10.0 mi WNW 5.8 mph - N/A   Clear
10:35 PM 48.2 °F - 35.6 °F 62% 30.23 in 10.0 mi WNW 5.8 mph - N/A   Clear
10:55 PM 48.2 °F - 35.6 °F 62% 30.23 in 10.0 mi NW 8.1 mph - N/A   Clear
11:15 PM 46.4 °F 42.4 °F 37.4 °F 71% 30.23 in 10.0 mi NW 8.1 mph - N/A   Clear
11:35 PM 48.2 °F - 35.6 °F 62% 30.23 in 10.0 mi WNW 8.1 mph - N/A   Clear
11:55 PM 48.2 °F - 32.0 °F 54% 30.23 in 10.0 mi WNW 6.9 mph - N/A   Clear